User: anonymous   Login
Location: Norwich
(52.6280°N, 1.3030°E)
Time: 09:06:18
(UTC+00:00)
Language:

APEX - Orbit

View from above orbital plane
View from above orbital plane
View from above satellite
View from above satellite

Ground track
Ground track

The orbit data is extracted from the following two-line orbital elements,

1 23191U 94046A   14302.84629734  .00023257  00000-0  94173-3 0   427
2 23191 069.9192 247.9669 0723317 120.1739 279.0061 14.08340122979446
Epoch (UTC): 29 October 2014 20:18:40
Eccentricity: 0.0723317
inclination: 69.9192°
perigee height: 341 km
apogee height: 1389 km
right ascension of ascending node: 247.9669°
argument of perigee: 120.1739°
revolutions per day: 14.08340122
mean anomaly at epoch: 279.0061°
orbit number at epoch: 97944

The dashed part of the orbit path shows where the satellite is in the earth's shadow,  

DLR